Location: Hickory_CSC
(35.7330°N, 81.3330°W)
Time: 06:19:29
(UTC-04:00)

Cosmos 1356 Rocket - Visible Passes

Search period start: 28 April 2017 00:00
Search period end: 08 May 2017 00:00
Orbit: 543 x 601 km, 81.2° (Epoch: 26 April)

Date Brightness Start Highest point End Pass type
(mag) Time Alt. Az. Time Alt. Az. Time Alt. Az.
28 Apr 6.0 05:40:08 10° SE 05:43:16 22° E 05:46:24 10° NE visible
29 Apr 5.4 05:42:15 10° SSE 05:45:47 29° E 05:49:19 10° NNE visible
30 Apr 4.8 05:44:31 10° SSE 05:48:19 40° E 05:52:06 10° NNE visible
01 May 4.1 05:46:54 10° S 05:50:53 57° E 05:54:49 10° NNE visible
02 May 3.5 05:49:24 10° S 05:53:26 80° E 05:57:27 10° N visible
03 May 3.3 05:52:00 10° SSW 05:56:01 73° W 06:00:02 10° N visible
04 May 3.5 05:54:41 10° SSW 05:58:37 51° W 06:02:32 10° N visible
05 May 6.3 04:22:57 10° ESE 04:24:35 12° E 04:26:14 10° ENE visible
05 May 4.0 05:57:29 10° SW 06:01:13 36° WNW 06:04:57 10° N visible
06 May 6.0 04:24:30 10° SE 04:27:05 17° E 04:29:40 10° NE visible
06 May 4.4 06:00:25 10° SW 06:03:51 27° WNW 06:07:17 10° NNW visible
07 May 5.5 04:26:25 10° SE 04:29:34 22° E 04:32:44 10° NE visible
